Flag for Germany Weather past 2 weeks in Elmshorn, Schleswig-Holstein, Germany

Now
70 °F

Passing clouds.


Feels Like: 70 °F
Forecast: 60 / 71 °F
Wind: 8 mph from North

Location: Hamburg-Fuhlsbuettel

Current Time: Jul 30, 2014 at 3:25:49 AM

Latest Report: Jul 30, 2014 at 2:50 AM


Visibility: N/A

Pressure: 29.77 "Hg

Humidity: 73%

Dew point: 61 °F

Location of ElmshornLocation

Historic Weather in Elmshorn — Graph

°F

Elmshorn temperature yesterday

Maximum temperature yesterday: 84 °F (at 1:20 PM)
Minimum temperature yesterday: 61 °F (at 5:50 AM)
Average temperature yesterday: 74 °F

Past Weeks' High & Low Weather Summary

 TemperatureHumidityPressure
High88 °F (Jul 19, 2:20 PM)100% (Jul 15, 6:50 AM)30.18 "Hg (Jul 15, 6:50 AM)
Low52 °F (Jul 17, 4:20 AM)29% (Jul 19, 6:20 PM)29.77 "Hg (Jul 29, 4:20 PM)
Average71 °F70%30.00 "Hg
* Reported Jul 15 1:20 AM — Jul 30 1:50 AM, Elmshorn, Weather by CustomWeather, © 2014

Note: Actual official high and low records may vary slightly from our data, if they occured in-between our weather recording intervals... More about our weather records

Advertising

Elmshorn weather history for previous 24 hours

 ConditionsComfort  
Time TempWeatherWind HumidityBarometerVisibility
1:50 AM
Jul 30
70 °FClear.7 mph78%29.77 "Hg10 mi
1:20 AM70 °FClear.7 mph78%29.77 "Hg10 mi
12:50 AM70 °FClear.6 mph78%29.77 "Hg10 mi
12:20 AM70 °FClear.6 mph78%29.77 "Hg10 mi
11:50 PM
Jul 29
72 °FClear.6 mph73%29.77 "Hg10 mi
11:20 PM72 °FClear.5 mph73%29.77 "Hg10 mi
10:50 PM73 °FPassing clouds.3 mph69%29.77 "HgN/A
10:20 PM73 °FSunny.3 mph65%29.77 "Hg10 mi
9:50 PM75 °FPassing clouds.3 mph61%29.77 "HgN/A
9:20 PM77 °FSunny.5 mph57%29.77 "Hg10 mi
8:50 PM77 °FPassing clouds.5 mph57%29.77 "HgN/A
8:20 PM79 °FSunny.5 mph54%29.77 "Hg10 mi
7:50 PM79 °FBroken clouds.6 mph54%29.77 "HgN/A
7:20 PM79 °FPassing clouds.6 mph54%29.77 "HgN/A
6:50 PM79 °FBroken clouds.9 mph54%29.77 "HgN/A
6:20 PM81 °FBroken clouds.12 mph51%29.77 "HgN/A
5:50 PM82 °FPartly sunny.10 mph48%29.77 "HgN/A
5:20 PM82 °FBroken clouds.10 mph51%29.77 "HgN/A
4:50 PM81 °FBroken clouds.9 mph58%29.77 "HgN/A
4:20 PM81 °FBroken clouds.7 mph58%29.77 "HgN/A
3:50 PM81 °FBroken clouds.8 mph54%29.80 "HgN/A
3:20 PM82 °FBroken clouds.7 mph51%29.80 "HgN/A
2:50 PM82 °FBroken clouds.8 mph51%29.80 "HgN/A
2:20 PM82 °FBroken clouds.7 mph51%29.83 "HgN/A
1:50 PM84 °FBroken clouds.8 mph48%29.83 "HgN/A
1:20 PM84 °FPartly sunny.8 mph48%29.83 "HgN/A
12:50 PM82 °FPartly sunny.8 mph51%29.83 "HgN/A
12:20 PM81 °FPartly sunny.7 mph54%29.83 "HgN/A
11:50 AM81 °FScattered clouds.9 mph58%29.83 "HgN/A
11:20 AM79 °FPassing clouds.8 mph61%29.86 "HgN/A
10:50 AM79 °FPassing clouds.8 mph65%29.86 "HgN/A
10:20 AM77 °FPassing clouds.9 mph69%29.86 "HgN/A
9:50 AM77 °FSunny.9 mph69%29.86 "Hg10 mi
9:20 AM75 °FPassing clouds.7 mph78%29.86 "HgN/A
8:50 AM72 °FClear.6 mph88%29.86 "Hg6 mi
8:20 AM70 °FClear.6 mph88%29.86 "Hg5 mi
7:50 AM70 °FClear.6 mph88%29.86 "Hg4 mi
7:20 AM68 °FClear.6 mph94%29.86 "Hg4 mi
6:50 AM66 °FFog.5 mph94%29.86 "Hg4 mi
6:20 AM63 °FFog.2 mph94%29.86 "Hg4 mi
5:50 AM61 °FFog.3 mph100%29.86 "Hg5 mi
5:20 AM63 °FClear.2 mph100%29.86 "Hg10 mi
4:50 AM63 °FClear.3 mph94%29.86 "HgN/A
4:20 AM64 °FClear.2 mph94%29.86 "Hg10 mi
3:50 AM64 °FClear.2 mph94%29.86 "Hg10 mi
3:20 AM64 °FClear.2 mph88%29.86 "Hg10 mi
Weather by CustomWeather, © 2014

See weather overviewHow to use our weather pages